Time,TemperatureF,DewpointF,PressureIn,WindDirection,WindDirectionDegrees,WindSpeedMPH,WindSpeedGustMPH,Humidity,HourlyPrecipIn,Conditions,Clouds,dailyrainin,SoftwareType,DateUTC
2013-07-13 00:08:00,55.0,50.2,29.92,North,0,0.0,0.0,84,0.00,,,-99.99,Weather View 32 v70,2013-07-13 07:08:00,
2013-07-13 00:23:00,55.0,50.6,29.92,North,0,0.0,0.0,85,0.00,,,-99.99,Weather View 32 v70,2013-07-13 07:23:00,
2013-07-13 00:38:00,55.0,50.6,29.92,North,0,0.0,0.0,85,0.00,,,-99.99,Weather View 32 v70,2013-07-13 07:38:00,
2013-07-13 00:45:00,55.0,50.2,29.92,North,0,0.0,0.0,84,0.00,,,-99.99,Weather View 32 v70,2013-07-13 07:45:00,
2013-07-13 00:53:00,55.0,50.2,29.92,North,0,0.0,0.0,84,0.00,,,-99.99,Weather View 32 v70,2013-07-13 07:53:00,
2013-07-13 01:08:00,55.0,49.6,29.92,North,0,0.0,0.0,82,0.00,,,-99.99,Weather View 32 v70,2013-07-13 08:08:00,
2013-07-13 01:23:00,54.0,49.6,29.92,North,0,0.0,0.0,85,0.00,,,-99.99,Weather View 32 v70,2013-07-13 08:23:00,
2013-07-13 01:38:00,53.0,48.9,29.92,North,0,0.0,0.0,86,0.00,,,-99.99,Weather View 32 v70,2013-07-13 08:38:00,
2013-07-13 01:45:00,52.0,48.5,29.92,North,0,0.0,0.0,88,0.00,,,-99.99,Weather View 32 v70,2013-07-13 08:45:00,
2013-07-13 01:53:00,52.0,48.5,29.92,North,0,0.0,0.0,88,0.00,,,-99.99,Weather View 32 v70,2013-07-13 08:53:00,
2013-07-13 02:08:00,52.0,48.9,29.92,North,0,0.0,0.0,89,0.00,,,-99.99,Weather View 32 v70,2013-07-13 09:08:00,
2013-07-13 02:23:00,52.0,49.4,29.91,North,0,0.0,0.0,91,0.00,,,-99.99,Weather View 32 v70,2013-07-13 09:23:00,
2013-07-13 02:38:00,52.0,49.4,29.91,North,0,0.0,0.0,91,0.00,,,-99.99,Weather View 32 v70,2013-07-13 09:38:00,
2013-07-13 02:45:00,52.0,49.2,29.91,North,0,0.0,0.0,90,0.00,,,-99.99,Weather View 32 v70,2013-07-13 09:45:00,
2013-07-13 02:53:00,52.0,49.2,29.91,North,0,0.0,0.0,90,0.00,,,-99.99,Weather View 32 v70,2013-07-13 09:53:00,
2013-07-13 03:08:00,52.0,48.9,29.91,North,0,0.0,0.0,89,0.00,,,-99.99,Weather View 32 v70,2013-07-13 10:08:00,
2013-07-13 03:23:00,53.0,49.8,29.91,North,0,0.0,0.0,89,0.00,,,-99.99,Weather View 32 v70,2013-07-13 10:23:00,
2013-07-13 03:38:00,53.0,49.5,29.91,North,0,0.0,0.0,88,0.00,,,-99.99,Weather View 32 v70,2013-07-13 10:38:00,
2013-07-13 03:45:00,52.0,48.2,29.91,North,0,0.0,0.0,87,0.00,,,-99.99,Weather View 32 v70,2013-07-13 10:45:00,
2013-07-13 03:53:00,52.0,48.2,29.91,North,0,0.0,0.0,87,0.00,,,-99.99,Weather View 32 v70,2013-07-13 10:53:00,
2013-07-13 04:08:00,51.0,48.2,29.91,North,0,0.0,0.0,90,0.00,,,-99.99,Weather View 32 v70,2013-07-13 11:08:00,
2013-07-13 04:23:00,50.0,47.5,29.90,North,0,0.0,0.0,91,0.00,,,-99.99,Weather View 32 v70,2013-07-13 11:23:00,
2013-07-13 04:38:00,50.0,47.5,29.90,North,0,0.0,0.0,91,0.00,,,-99.99,Weather View 32 v70,2013-07-13 11:38:00,
2013-07-13 04:45:00,50.0,47.5,29.90,North,0,0.0,0.0,91,0.00,,,-99.99,Weather View 32 v70,2013-07-13 11:45:00,
2013-07-13 04:53:00,50.0,47.5,29.90,North,0,0.0,0.0,91,0.00,,,-99.99,Weather View 32 v70,2013-07-13 11:53:00,
2013-07-13 05:08:00,50.0,47.5,29.91,North,0,0.0,0.0,91,0.00,,,-99.99,Weather View 32 v70,2013-07-13 12:08:00,
2013-07-13 05:23:00,49.0,46.5,29.91,North,0,0.0,0.0,91,0.00,,,-99.99,Weather View 32 v70,2013-07-13 12:23:00,
2013-07-13 05:38:00,49.0,46.8,29.91,North,0,0.0,0.0,92,0.00,,,-99.99,Weather View 32 v70,2013-07-13 12:38:00,
2013-07-13 05:45:00,50.0,48.1,29.91,North,0,0.0,0.0,93,0.00,,,-99.99,Weather View 32 v70,2013-07-13 12:45:00,
2013-07-13 05:53:00,50.0,48.1,29.91,North,0,0.0,0.0,93,0.00,,,-99.99,Weather View 32 v70,2013-07-13 12:53:00,
2013-07-13 06:08:00,50.0,48.1,29.92,North,0,0.0,0.0,93,0.00,,,-99.99,Weather View 32 v70,2013-07-13 13:08:00,
2013-07-13 06:23:00,50.0,47.8,29.92,North,0,0.0,0.0,92,0.00,,,-99.99,Weather View 32 v70,2013-07-13 13:23:00,
2013-07-13 06:38:00,51.0,48.8,29.92,North,0,0.0,0.0,92,0.00,,,-99.99,Weather View 32 v70,2013-07-13 13:38:00,
2013-07-13 06:45:00,53.0,50.7,29.92,North,0,0.0,0.0,92,0.00,,,-99.99,Weather View 32 v70,2013-07-13 13:45:00,
2013-07-13 06:53:00,53.0,50.7,29.92,North,0,0.0,0.0,92,0.00,,,-99.99,Weather View 32 v70,2013-07-13 13:53:00,
2013-07-13 07:08:00,54.0,51.1,29.92,North,0,0.0,0.0,90,0.00,,,-99.99,Weather View 32 v70,2013-07-13 14:08:00,
2013-07-13 07:23:00,54.0,51.1,29.93,North,0,0.0,0.0,90,0.00,,,-99.99,Weather View 32 v70,2013-07-13 14:23:00,
2013-07-13 07:38:00,56.0,52.8,29.94,North,0,0.0,0.0,89,0.00,,,-99.99,Weather View 32 v70,2013-07-13 14:38:00,
2013-07-13 07:45:00,57.0,52.8,29.94,North,0,0.0,0.0,86,0.00,,,-99.99,Weather View 32 v70,2013-07-13 14:45:00,
2013-07-13 07:53:00,57.0,52.8,29.94,North,0,0.0,0.0,86,0.00,,,-99.99,Weather View 32 v70,2013-07-13 14:53:00,
2013-07-13 08:08:00,57.0,51.9,29.95,North,0,0.0,0.0,83,0.00,,,-99.99,Weather View 32 v70,2013-07-13 15:08:00,
2013-07-13 08:23:00,58.0,52.2,29.94,North,0,0.0,0.0,81,0.00,,,-99.99,Weather View 32 v70,2013-07-13 15:23:00,
2013-07-13 08:38:00,59.0,52.5,29.95,North,0,0.0,0.0,79,0.00,,,-99.99,Weather View 32 v70,2013-07-13 15:38:00,
2013-07-13 08:45:00,59.0,52.5,29.95,North,0,0.0,0.0,79,0.00,,,-99.99,Weather View 32 v70,2013-07-13 15:45:00,
2013-07-13 08:53:00,59.0,52.5,29.95,North,0,0.0,0.0,79,0.00,,,-99.99,Weather View 32 v70,2013-07-13 15:53:00,
2013-07-13 09:08:00,59.0,52.5,29.95,North,0,0.0,0.0,79,0.00,,,-99.99,Weather View 32 v70,2013-07-13 16:08:00,
2013-07-13 09:23:00,60.0,52.8,29.95,North,0,0.0,0.0,77,0.00,,,-99.99,Weather View 32 v70,2013-07-13 16:23:00,
2013-07-13 09:38:00,61.0,53.7,29.95,North,0,0.0,0.0,77,0.00,,,-99.99,Weather View 32 v70,2013-07-13 16:38:00,
2013-07-13 09:45:00,60.0,53.5,29.95,North,0,0.0,0.0,79,0.00,,,-99.99,Weather View 32 v70,2013-07-13 16:45:00,
2013-07-13 09:53:00,60.0,53.5,29.95,North,0,0.0,0.0,79,0.00,,,-99.99,Weather View 32 v70,2013-07-13 16:53:00,
2013-07-13 10:08:00,61.0,54.1,29.96,North,0,0.0,0.0,78,0.00,,,-99.99,Weather View 32 v70,2013-07-13 17:08:00,
2013-07-13 10:23:00,61.0,54.1,29.96,North,0,0.0,0.0,78,0.00,,,-99.99,Weather View 32 v70,2013-07-13 17:23:00,
2013-07-13 10:38:00,63.0,54.6,29.96,North,0,0.0,0.0,74,0.00,,,-99.99,Weather View 32 v70,2013-07-13 17:38:00,
2013-07-13 10:45:00,64.0,55.1,29.96,North,0,0.0,0.0,73,0.00,,,-99.99,Weather View 32 v70,2013-07-13 17:45:00,
2013-07-13 10:53:00,64.0,55.1,29.96,North,0,0.0,0.0,73,0.00,,,-99.99,Weather View 32 v70,2013-07-13 17:53:00,
2013-07-13 11:08:00,65.0,55.7,29.97,North,0,0.0,0.0,72,0.00,,,-99.99,Weather View 32 v70,2013-07-13 18:08:00,
2013-07-13 11:23:00,65.0,55.7,29.97,North,0,0.0,0.0,72,0.00,,,-99.99,Weather View 32 v70,2013-07-13 18:23:00,
2013-07-13 11:38:00,66.0,55.9,29.98,North,0,0.0,0.0,70,0.00,,,-99.99,Weather View 32 v70,2013-07-13 18:38:00,
2013-07-13 11:45:00,67.0,56.1,29.98,North,0,0.0,0.0,68,0.00,,,-99.99,Weather View 32 v70,2013-07-13 18:45:00,
2013-07-13 11:53:00,67.0,56.1,29.98,North,0,0.0,0.0,68,0.00,,,-99.99,Weather View 32 v70,2013-07-13 18:53:00,
2013-07-13 12:08:00,68.0,56.2,29.98,North,0,0.0,0.0,66,0.00,,,-99.99,Weather View 32 v70,2013-07-13 19:08:00,
2013-07-13 12:23:00,69.0,56.3,29.98,North,0,0.0,0.0,64,0.00,,,-99.99,Weather View 32 v70,2013-07-13 19:23:00,
2013-07-13 12:38:00,68.0,54.9,29.98,North,0,0.0,0.0,63,0.00,,,-99.99,Weather View 32 v70,2013-07-13 19:38:00,
2013-07-13 12:45:00,69.0,55.4,29.98,North,0,0.0,0.0,62,0.00,,,-99.99,Weather View 32 v70,2013-07-13 19:45:00,
2013-07-13 12:53:00,69.0,55.4,29.98,North,0,0.0,0.0,62,0.00,,,-99.99,Weather View 32 v70,2013-07-13 19:53:00,
2013-07-13 13:08:00,69.0,55.4,29.98,North,0,0.0,0.0,62,0.00,,,-99.99,Weather View 32 v70,2013-07-13 20:08:00,
2013-07-13 13:23:00,70.0,55.4,29.98,North,0,0.0,0.0,60,0.00,,,-99.99,Weather View 32 v70,2013-07-13 20:23:00,
2013-07-13 13:38:00,71.0,54.5,29.98,North,0,0.0,0.0,56,0.00,,,-99.99,Weather View 32 v70,2013-07-13 20:38:00,
2013-07-13 13:45:00,71.0,54.5,29.98,North,0,0.0,0.0,56,0.00,,,-99.99,Weather View 32 v70,2013-07-13 20:45:00,
2013-07-13 13:53:00,71.0,54.5,29.98,North,0,0.0,0.0,56,0.00,,,-99.99,Weather View 32 v70,2013-07-13 20:53:00,
2013-07-13 14:08:00,71.0,54.0,29.98,North,0,0.0,0.0,55,0.00,,,-99.99,Weather View 32 v70,2013-07-13 21:08:00,
2013-07-13 14:23:00,73.0,55.3,29.98,North,0,0.0,0.0,54,0.00,,,-99.99,Weather View 32 v70,2013-07-13 21:23:00,
2013-07-13 14:38:00,73.0,55.3,29.98,North,0,0.0,0.0,54,0.00,,,-99.99,Weather View 32 v70,2013-07-13 21:38:00,
2013-07-13 14:45:00,73.0,53.7,29.99,North,0,0.0,0.0,51,0.00,,,-99.99,Weather View 32 v70,2013-07-13 21:45:00,
2013-07-13 14:53:00,73.0,53.7,29.99,North,0,0.0,0.0,51,0.00,,,-99.99,Weather View 32 v70,2013-07-13 21:53:00,
2013-07-13 15:08:00,74.0,54.7,29.98,North,0,0.0,0.0,51,0.00,,,-99.99,Weather View 32 v70,2013-07-13 22:08:00,
2013-07-13 15:23:00,74.0,54.1,29.98,North,0,0.0,0.0,50,0.00,,,-99.99,Weather View 32 v70,2013-07-13 22:23:00,
2013-07-13 15:38:00,74.0,53.6,29.98,North,0,0.0,0.0,49,0.00,,,-99.99,Weather View 32 v70,2013-07-13 22:38:00,
2013-07-13 15:45:00,74.0,53.6,29.97,North,0,0.0,0.0,49,0.00,,,-99.99,Weather View 32 v70,2013-07-13 22:45:00,
2013-07-13 15:53:00,74.0,53.6,29.97,North,0,0.0,0.0,49,0.00,,,-99.99,Weather View 32 v70,2013-07-13 22:53:00,
2013-07-13 16:08:00,74.0,54.1,29.98,North,0,0.0,0.0,50,0.00,,,-99.99,Weather View 32 v70,2013-07-13 23:08:00,
2013-07-13 16:23:00,77.0,54.0,29.98,North,0,0.0,0.0,45,0.00,,,-99.99,Weather View 32 v70,2013-07-13 23:23:00,
2013-07-13 16:38:00,75.0,53.9,29.98,North,0,0.0,0.0,48,0.00,,,-99.99,Weather View 32 v70,2013-07-13 23:38:00,
2013-07-13 16:45:00,74.0,54.1,29.98,North,0,0.0,0.0,50,0.00,,,-99.99,Weather View 32 v70,2013-07-13 23:45:00,
2013-07-13 16:53:00,74.0,54.1,29.98,North,0,0.0,0.0,50,0.00,,,-99.99,Weather View 32 v70,2013-07-13 23:53:00,
2013-07-13 17:08:00,73.0,53.2,29.98,North,0,0.0,0.0,50,0.00,,,-99.99,Weather View 32 v70,2013-07-14 00:08:00,
2013-07-13 17:23:00,73.0,53.7,29.99,North,0,0.0,0.0,51,0.00,,,-99.99,Weather View 32 v70,2013-07-14 00:23:00,
2013-07-13 17:38:00,73.0,55.3,29.99,North,0,0.0,0.0,54,0.00,,,-99.99,Weather View 32 v70,2013-07-14 00:38:00,
2013-07-13 17:45:00,74.0,55.2,29.99,North,0,0.0,0.0,52,0.00,,,-99.99,Weather View 32 v70,2013-07-14 00:45:00,
2013-07-13 17:53:00,74.0,55.2,29.99,North,0,0.0,0.0,52,0.00,,,-99.99,Weather View 32 v70,2013-07-14 00:53:00,
2013-07-13 18:08:00,76.0,56.0,29.99,North,0,0.0,0.0,50,0.00,,,-99.99,Weather View 32 v70,2013-07-14 01:08:00,
2013-07-13 18:23:00,79.0,53.9,29.99,North,0,0.0,0.0,42,0.00,,,-99.99,Weather View 32 v70,2013-07-14 01:23:00,
2013-07-13 18:38:00,78.0,53.6,29.99,North,0,0.0,0.0,43,0.00,,,-99.99,Weather View 32 v70,2013-07-14 01:38:00,
2013-07-13 18:45:00,75.0,51.5,29.99,North,0,0.0,0.0,44,0.00,,,-99.99,Weather View 32 v70,2013-07-14 01:45:00,
2013-07-13 18:53:00,75.0,51.5,29.99,North,0,0.0,0.0,44,0.00,,,-99.99,Weather View 32 v70,2013-07-14 01:53:00,
2013-07-13 19:08:00,74.0,50.6,30.00,North,0,0.0,0.0,44,0.00,,,-99.99,Weather View 32 v70,2013-07-14 02:08:00,
2013-07-13 19:23:00,73.0,49.7,30.01,North,0,0.0,0.0,44,0.00,,,-99.99,Weather View 32 v70,2013-07-14 02:23:00,
2013-07-13 19:38:00,71.0,49.1,30.01,North,0,0.0,0.0,46,0.00,,,-99.99,Weather View 32 v70,2013-07-14 02:38:00,
2013-07-13 19:45:00,71.0,48.5,30.01,North,0,0.0,0.0,45,0.00,,,-99.99,Weather View 32 v70,2013-07-14 02:45:00,
2013-07-13 19:53:00,71.0,48.5,30.01,North,0,0.0,0.0,45,0.00,,,-99.99,Weather View 32 v70,2013-07-14 02:53:00,
2013-07-13 20:08:00,69.0,49.0,30.02,North,0,0.0,0.0,49,0.00,,,-99.99,Weather View 32 v70,2013-07-14 03:08:00,
2013-07-13 20:23:00,65.0,48.9,30.02,North,0,0.0,0.0,56,0.00,,,-99.99,Weather View 32 v70,2013-07-14 03:23:00,
2013-07-13 20:38:00,63.0,49.3,30.02,North,0,0.0,0.0,61,0.00,,,-99.99,Weather View 32 v70,2013-07-14 03:38:00,
2013-07-13 20:45:00,62.0,50.5,30.02,North,0,0.0,0.0,66,0.00,,,-99.99,Weather View 32 v70,2013-07-14 03:45:00,
2013-07-13 20:53:00,62.0,50.5,30.02,North,0,0.0,0.0,66,0.00,,,-99.99,Weather View 32 v70,2013-07-14 03:53:00,
2013-07-13 21:08:00,60.0,50.5,30.03,North,0,0.0,0.0,71,0.00,,,-99.99,Weather View 32 v70,2013-07-14 04:08:00,
2013-07-13 21:23:00,58.0,50.5,30.02,North,0,0.0,0.0,76,0.00,,,-99.99,Weather View 32 v70,2013-07-14 04:23:00,
2013-07-13 21:38:00,57.0,50.2,30.03,North,0,0.0,0.0,78,0.00,,,-99.99,Weather View 32 v70,2013-07-14 04:38:00,
2013-07-13 21:45:00,57.0,50.9,30.03,North,0,0.0,0.0,80,0.00,,,-99.99,Weather View 32 v70,2013-07-14 04:45:00,
2013-07-13 21:53:00,57.0,50.9,30.03,North,0,0.0,0.0,80,0.00,,,-99.99,Weather View 32 v70,2013-07-14 04:53:00,
2013-07-13 22:08:00,56.0,50.6,30.02,North,0,0.0,0.0,82,0.00,,,-99.99,Weather View 32 v70,2013-07-14 05:08:00,
2013-07-13 22:23:00,56.0,50.9,30.02,North,0,0.0,0.0,83,0.00,,,-99.99,Weather View 32 v70,2013-07-14 05:23:00,
2013-07-13 22:38:00,55.0,50.2,30.02,North,0,0.0,0.0,84,0.00,,,-99.99,Weather View 32 v70,2013-07-14 05:38:00,
2013-07-13 22:45:00,55.0,50.2,30.01,North,0,0.0,0.0,84,0.00,,,-99.99,Weather View 32 v70,2013-07-14 05:45:00,
2013-07-13 22:53:00,55.0,50.2,30.01,North,0,0.0,0.0,84,0.00,,,-99.99,Weather View 32 v70,2013-07-14 05:53:00,
2013-07-13 23:08:00,55.0,50.2,30.01,North,0,0.0,0.0,84,0.00,,,-99.99,Weather View 32 v70,2013-07-14 06:08:00,
2013-07-13 23:23:00,56.0,50.6,30.01,North,0,0.0,0.0,82,0.00,,,-99.99,Weather View 32 v70,2013-07-14 06:23:00,
2013-07-13 23:38:00,55.0,50.2,30.01,North,0,0.0,0.0,84,0.00,,,-99.99,Weather View 32 v70,2013-07-14 06:38:00,
2013-07-13 23:45:00,54.0,49.9,30.01,North,0,0.0,0.0,86,0.00,,,-99.99,Weather View 32 v70,2013-07-14 06:45:00,
2013-07-13 23:53:00,54.0,49.9,30.01,North,0,0.0,0.0,86,0.00,,,-99.99,Weather View 32 v70,2013-07-14 06:53:00,